PAUSAT-1

导读

PAUSAT-1是美国发射的一颗人造卫星,于2025年1月14日00:00:00发射升空,作为美国2025年年初发射的空间探测设备,承载着该国航天领域对应科学实验或空间观测等任务目标,是美国持续推进太空探索技术发展、拓展空间利用的实践体现,其运行将为相关空间科学研究等提供数据支撑,推动航天技术的发展与创新。

基本信息
目录编号:
62653
目录名称:
PAUSAT-1
国际标识:
2025-009AW
轨道中心:
EARTH
卫星名称:
PAUSAT-1
卫星全名:
PAUSAT-1
卫星状态:
在轨 (已飞行599 天)
发射日期:
2025-01-14 UTC
国别 :
土耳其 (TR)
星等 :
--
轨道信息
数据来源 国际轨道数据
星历时间: 2026-09-05T05:31:16+0800
10小时前
查看轨道信息
半长轴: 6871.689km
偏心率: 0.0002913
轨道倾角: 97.390°
近地点辐角 68.493°
升交点赤经 326.415°
平近点角 291.661°
近地点: 491.55km
远地点: 495.554km
周期: 94.483分钟
每日圈数: 15.240793
详细信息
使用方式:
暂无
2D轨道图
3D轨道图
轨道高度分析图
轨道倾角分析图
轨道综合分析图
查看轨道综合分析图
交会数据列表
事件ID 空间交会对象 最接近时刻(TCA) 交会距离 交会风险概率(CRP) 交会风险指数(CRI) 操作
CDM_260905-061706-265306-322824
PAUSAT-1 (62653)
OBJECT U (63228)
2026-09-05T
06:17:49+0000
0.804 km
远距离
5.688594E-5 中风险 0.7
CDM_260905-044306-265306-322824
PAUSAT-1 (62653)
OBJECT U (63228)
2026-09-05T
04:43:17+0000
1.245 km
极远距离
1.280997E-5 中风险 0.57
CDM_260905-075206-265306-322824
PAUSAT-1 (62653)
OBJECT U (63228)
2026-09-05T
07:52:21+0000
1.304 km
极远距离
1.090743E-5 中风险 0.56
CDM_260905-030806-265306-322824
PAUSAT-1 (62653)
OBJECT U (63228)
2026-09-05T
03:08:44+0000
2.100 km
极远距离
2.561923E-6 低风险 0.43
CDM_260905-092606-265306-322824
PAUSAT-1 (62653)
OBJECT U (63228)
2026-09-05T
09:26:53+0000
2.172 km
极远距离
2.367835E-6 低风险 0.42